Find this page online at www.coolrunning.com/results/05/ma/Jun29_GSHSum_set1.shtml

GSH Summer Sizzler #12 8K

Springfield, MA, June 29, 2005

Overall

Greater Springfield Harriers

For more race information, see Greater Springfield Harriers.

Race:	GSH Summer Sizzler #12 8K			Date:	06/29/05		
									
Dist.	4.96	Miles	Weather:	Humid	Temp:	72	Roads:	Dry	
									
Place	Time	Name			Age	M/F	Pace/M	Club	Record		
1	0:27:54	James McCowan		27	M	5:37	---			
2	0:28:33	Carlos Rivera		31	M	5:45	GSH			
3	0:31:06	Rich Clark		51	M	6:16	GSH			
4	0:32:49	Jason Hewitt		26	M	6:37	GSH			
5	0:33:25	Bill Rowe		         43	M	6:44	GSH			
6	0:33:58	Art Roberts		61	M	6:51	GSH			
7	0:34:52	Wayne Stocker		51	M	7:02	GSH			
8	0:34:56	Chris Conz		28	M	7:03	---			
9	0:35:37	Colleen Cummings	         39	F	7:11	GSH			
10	0:37:44	Brian Goddu		55	M	7:36	GSH			
11	0:38:19	Kim Buescher		27	F	7:44	EORC			
12	0:38:28	Neal Lamberton		56	M	7:45	GSH
13	0:39:03	Joe LaValle		27	M	7:52	---
14	0:41:32	Chad Joyal		35	M	8:22	---
15	0:41:32	Lauren Stocker		15	F	8:22	GSH
16	0:41:33	Carolyn Ianello		17	F	8:23	---
17	0:42:36	Mike Butler		32	M	8:35	EORC
18	0:42:37	Joe Wynn		         26	M	8:36	---
19	0:43:47	Roy Anderson		57	M	8:50	GSH
20	0:45:06	Jeff Burgess		58	M	9:06	GSH
21	0:48:09	Tony Lucia		67	M	9:42	EORC
22	0:51:46	Julie Thayer		23	F	10:26	---
23	0:56:48	Peter Stasz		58	M	11:27	GSH
24	1:10:58	Jan Komaiszko		49	M	14:18	GSH